Location: Asheville, NC
(35.6000°N, 82.5500°W)
Time: 06:21:39
(UTC-05:00)

N. Korean satellite - Pass Details

Date: 12 December 2017
Orbit: 459 x 515 km, 97.2° (Epoch: 19 January)

Event Time Altitude Azimuth Distance (km) Brightness Sun altitude
Rises 18:40:41 0° 174° (S) 2,566 10.4 -16.4°
Reaches altitude 10° 18:42:44 10° 177° (S) 1,696 9.5 -16.8°
Maximum altitude 18:46:22 66° 259° (W) 556 7.0 -17.5°
Drops below altitude 10° 18:50:06 10° 343° (NNW) 1,734 9.4 -18.2°
Sets 18:52:13 0° 346° (NNW) 2,629 10.3 -18.7°
